sat.trackr.live / text

‹ back to catalog

STARLINK-4607

NORAD 53740 · 2022-107AS

PAYLOAD ACTIVE UNKNOWN

§ Identity

Operator
Country
US
Launch date
2022-09-05
Launch site
AFETR
Launch vehicle
Mass (kg)
RCS (m²)

Purposes: comms

External: N2YO · Heavens-Above · Gunter

§ Orbital elements

Epoch: 2026-09-20T22:00:03.000096Z

Period
91.57 min
Inclination
53.1596°
Eccentricity
0.0001212
Mean motion
15.72557184 rev/d
Perigee alt
350.8 km
Apogee alt
352.4 km
Semi-major
6,729.7 km
B*
3.0218e-3
RAAN
85.2200°
Arg perigee
74.6497°
Mean anomaly
332.7160°
Rev number
593

§ Raw data

STARLINK-46071 53740U 22107AS  26263.91670139  .00434136  00000+0  30218-2 0  99922 53740  53.1596  85.2200 0001212  74.6497 332.7160 15.72557184  5934

JSON: /api/v1/satellites/53740 · /tle

For live sub-satellite position, see the globe view (requires WebGL).

§ Visibility from observer

Set your observer location to see the next 7 days of passes ≥ 10°. The values pass through the URL so the page stays shareable.

No JS? Fill the form by hand. The geolocation button needs JavaScript.